Year,Month,Day,Hour,Minute,Value (Times are PST for windgust in km/hr)
2022,05,18,00,00,3.20
2022,05,18,00,01,3.20
2022,05,18,00,02,1.60
2022,05,18,00,03,4.80
2022,05,18,00,04,3.20
2022,05,18,00,05,3.20
2022,05,18,00,06,3.20
2022,05,18,00,07,4.80
2022,05,18,00,08,4.80
2022,05,18,00,09,4.80
2022,05,18,00,10,3.20
2022,05,18,00,11,3.20
2022,05,18,00,12,4.80
2022,05,18,00,13,4.80
2022,05,18,00,14,4.80
2022,05,18,00,15,4.80
2022,05,18,00,16,3.20
2022,05,18,00,17,3.20
2022,05,18,00,18,4.80
2022,05,18,00,19,6.40
2022,05,18,00,20,4.80
2022,05,18,00,21,6.40
2022,05,18,00,22,3.20
2022,05,18,00,23,3.20
2022,05,18,00,24,3.20
2022,05,18,00,25,4.80
2022,05,18,00,26,6.40
2022,05,18,00,27,6.40
2022,05,18,00,28,8.10
2022,05,18,00,29,6.40
2022,05,18,00,30,8.10
2022,05,18,00,31,8.10
2022,05,18,00,32,8.10
2022,05,18,00,33,4.80
2022,05,18,00,34,8.10
2022,05,18,00,35,4.80
2022,05,18,00,36,6.40
2022,05,18,00,37,6.40
2022,05,18,00,38,6.40
2022,05,18,00,39,6.40
2022,05,18,00,40,6.40
2022,05,18,00,41,8.10
2022,05,18,00,42,4.80
2022,05,18,00,43,4.80
2022,05,18,00,44,4.80
2022,05,18,00,45,4.80
2022,05,18,00,46,6.40
2022,05,18,00,47,6.40
2022,05,18,00,48,8.10
2022,05,18,00,49,8.10
2022,05,18,00,50,8.10
2022,05,18,00,51,8.10
2022,05,18,00,52,8.10
2022,05,18,00,53,6.40
2022,05,18,00,54,6.40
2022,05,18,00,55,8.10
2022,05,18,00,56,9.60
2022,05,18,00,57,8.10
2022,05,18,00,58,8.10
2022,05,18,00,59,8.10
2022,05,18,01,00,8.10
2022,05,18,01,01,6.40
2022,05,18,01,02,9.60
2022,05,18,01,03,9.60
2022,05,18,01,04,11.30
2022,05,18,01,05,11.30
2022,05,18,01,06,14.50
2022,05,18,01,07,14.50
2022,05,18,01,08,11.30
2022,05,18,01,09,11.30
2022,05,18,01,10,14.50
2022,05,18,01,11,12.90
2022,05,18,01,12,11.30
2022,05,18,01,13,9.60
2022,05,18,01,14,11.30
2022,05,18,01,15,9.60
2022,05,18,01,16,11.30
2022,05,18,01,17,8.10
2022,05,18,01,18,9.60
2022,05,18,01,19,11.30
2022,05,18,01,20,11.30
2022,05,18,01,21,8.10
2022,05,18,01,22,9.60
2022,05,18,01,23,9.60
2022,05,18,01,24,9.60
2022,05,18,01,25,8.10
2022,05,18,01,26,8.10
2022,05,18,01,27,8.10
2022,05,18,01,28,6.40
2022,05,18,01,29,8.10
2022,05,18,01,30,11.30
2022,05,18,01,31,9.60
2022,05,18,01,32,6.40
2022,05,18,01,33,3.20
2022,05,18,01,34,4.80
2022,05,18,01,35,9.60
2022,05,18,01,36,8.10
2022,05,18,01,37,8.10
2022,05,18,01,38,8.10
2022,05,18,01,39,6.40
2022,05,18,01,40,11.30
2022,05,18,01,41,8.10
2022,05,18,01,42,11.30
2022,05,18,01,43,14.50
2022,05,18,01,44,9.60
2022,05,18,01,45,9.60
2022,05,18,01,46,8.10
2022,05,18,01,47,11.30
2022,05,18,01,48,11.30
2022,05,18,01,49,4.80
2022,05,18,01,50,6.40
2022,05,18,01,51,3.20
2022,05,18,01,52,4.80
2022,05,18,01,53,4.80
2022,05,18,01,54,1.60
2022,05,18,01,55,3.20
2022,05,18,01,56,3.20
2022,05,18,01,57,4.80
2022,05,18,01,58,3.20
2022,05,18,01,59,4.80
2022,05,18,02,00,8.10
2022,05,18,02,01,4.80
2022,05,18,02,02,3.20
2022,05,18,02,03,6.40
2022,05,18,02,04,4.80
2022,05,18,02,05,8.10
2022,05,18,02,06,6.40
2022,05,18,02,07,8.10
2022,05,18,02,08,8.10
2022,05,18,02,09,6.40
2022,05,18,02,10,6.40
2022,05,18,02,11,6.40
2022,05,18,02,12,9.60
2022,05,18,02,13,11.30
2022,05,18,02,14,9.60
2022,05,18,02,15,6.40
2022,05,18,02,16,8.10
2022,05,18,02,17,4.80
2022,05,18,02,18,6.40
2022,05,18,02,19,6.40
2022,05,18,02,20,9.60
2022,05,18,02,21,11.30
2022,05,18,02,22,9.60
2022,05,18,02,23,8.10
2022,05,18,02,24,9.60
2022,05,18,02,25,8.10
2022,05,18,02,26,11.30
2022,05,18,02,27,11.30
2022,05,18,02,28,9.60
2022,05,18,02,29,9.60
2022,05,18,02,30,9.60
2022,05,18,02,31,8.10
2022,05,18,02,32,8.10
2022,05,18,02,33,8.10
2022,05,18,02,34,9.60
2022,05,18,02,35,9.60
2022,05,18,02,36,16.10
2022,05,18,02,37,16.10
2022,05,18,02,38,16.10
2022,05,18,02,39,14.50
2022,05,18,02,40,14.50
2022,05,18,02,41,16.10
2022,05,18,02,42,14.50
2022,05,18,02,43,16.10
2022,05,18,02,44,14.50
2022,05,18,02,45,14.50
2022,05,18,02,46,11.30
2022,05,18,02,47,11.30
2022,05,18,02,48,11.30
2022,05,18,02,49,16.10
2022,05,18,02,50,12.90
2022,05,18,02,51,11.30
2022,05,18,02,52,17.70
2022,05,18,02,53,16.10
2022,05,18,02,54,16.10
2022,05,18,02,55,12.90
2022,05,18,02,56,16.10
2022,05,18,02,57,11.30
2022,05,18,02,58,16.10
2022,05,18,02,59,11.30
2022,05,18,03,00,11.30
2022,05,18,03,01,12.90
2022,05,18,03,02,16.10
2022,05,18,03,03,16.10
2022,05,18,03,04,16.10
2022,05,18,03,05,20.90
2022,05,18,03,06,8.10
2022,05,18,03,07,9.60
2022,05,18,03,08,11.30
2022,05,18,03,09,12.90
2022,05,18,03,10,14.50
2022,05,18,03,11,16.10
2022,05,18,03,12,12.90
2022,05,18,03,13,11.30
2022,05,18,03,14,11.30
2022,05,18,03,15,14.50
2022,05,18,03,16,14.50
2022,05,18,03,17,9.60
2022,05,18,03,18,14.50
2022,05,18,03,19,16.10
2022,05,18,03,20,16.10
2022,05,18,03,21,24.20
2022,05,18,03,22,17.70
2022,05,18,03,23,14.50
2022,05,18,03,24,20.90
2022,05,18,03,25,14.50
2022,05,18,03,26,19.30
2022,05,18,03,27,17.70
2022,05,18,03,28,9.60
2022,05,18,03,29,14.50
2022,05,18,03,30,19.30
2022,05,18,03,31,20.90
2022,05,18,03,32,16.10
2022,05,18,03,33,14.50
2022,05,18,03,34,16.10
2022,05,18,03,35,16.10
2022,05,18,03,36,12.90
2022,05,18,03,37,17.70
2022,05,18,03,38,17.70
2022,05,18,03,39,11.30
2022,05,18,03,40,8.10
2022,05,18,03,41,11.30
2022,05,18,03,42,11.30
2022,05,18,03,43,11.30
2022,05,18,03,44,11.30
2022,05,18,03,45,9.60
2022,05,18,03,46,11.30
2022,05,18,03,47,9.60
2022,05,18,03,48,6.40
2022,05,18,03,49,9.60
2022,05,18,03,50,14.50
2022,05,18,03,51,11.30
2022,05,18,03,52,9.60
2022,05,18,03,53,11.30
2022,05,18,03,54,8.10
2022,05,18,03,55,8.10
2022,05,18,03,56,8.10
2022,05,18,03,57,8.10
2022,05,18,03,58,11.30
2022,05,18,03,59,12.90
2022,05,18,04,00,12.90
2022,05,18,04,01,12.90
2022,05,18,04,02,12.90
2022,05,18,04,03,11.30
2022,05,18,04,04,11.30
2022,05,18,04,05,16.10
2022,05,18,04,06,17.70
2022,05,18,04,07,16.10
2022,05,18,04,08,17.70
2022,05,18,04,09,11.30
2022,05,18,04,10,17.70
2022,05,18,04,11,16.10
2022,05,18,04,12,16.10
2022,05,18,04,13,16.10
2022,05,18,04,14,16.10
2022,05,18,04,15,11.30
2022,05,18,04,16,20.90
2022,05,18,04,17,16.10
2022,05,18,04,18,20.90
2022,05,18,04,19,17.70
2022,05,18,04,20,14.50
2022,05,18,04,21,16.10
2022,05,18,04,22,12.90
2022,05,18,04,23,9.60
2022,05,18,04,24,11.30
2022,05,18,04,25,9.60
2022,05,18,04,26,11.30
2022,05,18,04,27,4.80
2022,05,18,04,28,6.40
2022,05,18,04,29,8.10
2022,05,18,04,30,8.10
2022,05,18,04,31,9.60
2022,05,18,04,32,9.60
2022,05,18,04,33,8.10
2022,05,18,04,34,8.10
2022,05,18,04,35,8.10
2022,05,18,04,36,3.20
2022,05,18,04,37,6.40
2022,05,18,04,38,4.80
2022,05,18,04,39,8.10
2022,05,18,04,40,17.70
2022,05,18,04,41,22.50
2022,05,18,04,42,8.10
2022,05,18,04,43,12.90
2022,05,18,04,44,14.50
2022,05,18,04,45,11.30
2022,05,18,04,46,9.60
2022,05,18,04,47,8.10
2022,05,18,04,48,14.50
2022,05,18,04,49,6.40
2022,05,18,04,50,16.10
2022,05,18,04,51,11.30
2022,05,18,04,52,17.70
2022,05,18,04,53,11.30
2022,05,18,04,54,16.10
2022,05,18,04,55,6.40
2022,05,18,04,56,6.40
2022,05,18,04,57,16.10
2022,05,18,04,58,14.50
2022,05,18,04,59,16.10
2022,05,18,05,00,11.30
2022,05,18,05,01,9.60
2022,05,18,05,02,11.30
2022,05,18,05,03,9.60
2022,05,18,05,04,6.40
2022,05,18,05,05,11.30
2022,05,18,05,06,17.70
2022,05,18,05,07,11.30
2022,05,18,05,08,17.70
2022,05,18,05,09,16.10
2022,05,18,05,10,22.50
2022,05,18,05,11,16.10
2022,05,18,05,12,14.50
2022,05,18,05,13,25.70
2022,05,18,05,14,24.20
2022,05,18,05,15,19.30
2022,05,18,05,16,20.90
2022,05,18,05,17,24.20
2022,05,18,05,18,14.50
2022,05,18,05,19,16.10
2022,05,18,05,20,19.30
2022,05,18,05,21,19.30
2022,05,18,05,22,12.90
2022,05,18,05,23,19.30
2022,05,18,05,24,14.50
2022,05,18,05,25,14.50
2022,05,18,05,26,14.50
2022,05,18,05,27,19.30
2022,05,18,05,28,14.50
2022,05,18,05,29,16.10
2022,05,18,05,30,11.30
2022,05,18,05,31,17.70
2022,05,18,05,32,17.70
2022,05,18,05,33,11.30
2022,05,18,05,34,19.30
2022,05,18,05,35,20.90
2022,05,18,05,36,19.30
2022,05,18,05,37,17.70
2022,05,18,05,38,16.10
2022,05,18,05,39,20.90
2022,05,18,05,40,20.90
2022,05,18,05,41,17.70
2022,05,18,05,42,19.30
2022,05,18,05,43,16.10
2022,05,18,05,44,17.70
2022,05,18,05,45,16.10
2022,05,18,05,46,16.10
2022,05,18,05,47,16.10
2022,05,18,05,48,11.30
2022,05,18,05,49,22.50
2022,05,18,05,50,19.30
2022,05,18,05,51,16.10
2022,05,18,05,52,11.30
2022,05,18,05,53,20.90
2022,05,18,05,54,24.20
2022,05,18,05,55,19.30
2022,05,18,05,56,22.50
2022,05,18,05,57,14.50
2022,05,18,05,58,14.50
2022,05,18,05,59,19.30
2022,05,18,06,00,24.20
2022,05,18,06,01,20.90
2022,05,18,06,02,17.70
2022,05,18,06,03,17.70
2022,05,18,06,04,20.90
2022,05,18,06,05,22.50
2022,05,18,06,06,16.10
2022,05,18,06,07,11.30
2022,05,18,06,08,12.90
2022,05,18,06,09,9.60
2022,05,18,06,10,11.30
2022,05,18,06,11,16.10
2022,05,18,06,12,16.10
2022,05,18,06,13,9.60
2022,05,18,06,14,11.30
2022,05,18,06,15,16.10
2022,05,18,06,16,20.90
2022,05,18,06,17,9.60
2022,05,18,06,18,17.70
2022,05,18,06,19,16.10
2022,05,18,06,20,11.30
2022,05,18,06,21,16.10
2022,05,18,06,22,9.60
2022,05,18,06,23,14.50
2022,05,18,06,24,19.30
2022,05,18,06,25,19.30
2022,05,18,06,26,16.10
2022,05,18,06,27,9.60
2022,05,18,06,28,9.60
2022,05,18,06,29,12.90
2022,05,18,06,30,11.30
2022,05,18,06,31,6.40
2022,05,18,06,32,9.60
2022,05,18,06,33,8.10
2022,05,18,06,34,11.30
2022,05,18,06,35,11.30
2022,05,18,06,36,11.30
2022,05,18,06,37,8.10
2022,05,18,06,38,8.10
2022,05,18,06,39,8.10
2022,05,18,06,40,9.60
2022,05,18,06,41,8.10
2022,05,18,06,42,16.10
2022,05,18,06,43,11.30
2022,05,18,06,44,11.30
2022,05,18,06,45,9.60
2022,05,18,06,46,16.10
2022,05,18,06,47,17.70
2022,05,18,06,48,17.70
2022,05,18,06,49,11.30
2022,05,18,06,50,4.80
2022,05,18,06,51,6.40
2022,05,18,06,52,6.40
2022,05,18,06,53,4.80
2022,05,18,06,54,6.40
2022,05,18,06,55,9.60
2022,05,18,06,56,17.70
2022,05,18,06,57,11.30
2022,05,18,06,58,4.80
2022,05,18,06,59,9.60
2022,05,18,07,00,9.60
2022,05,18,07,01,6.40
2022,05,18,07,02,4.80
2022,05,18,07,03,4.80
2022,05,18,07,04,4.80
2022,05,18,07,05,9.60
2022,05,18,07,06,1.60
2022,05,18,07,07,3.20
2022,05,18,07,08,1.60
2022,05,18,07,09,3.20
2022,05,18,07,10,3.20
2022,05,18,07,11,1.60
2022,05,18,07,12,3.20
2022,05,18,07,13,4.80
2022,05,18,07,14,3.20
2022,05,18,07,15,6.40
2022,05,18,07,16,8.10
2022,05,18,07,17,8.10
2022,05,18,07,18,6.40
2022,05,18,07,19,8.10
2022,05,18,07,20,6.40
2022,05,18,07,21,9.60
2022,05,18,07,22,8.10
2022,05,18,07,23,6.40
2022,05,18,07,24,11.30
2022,05,18,07,25,11.30
2022,05,18,07,26,14.50
2022,05,18,07,27,16.10
2022,05,18,07,28,11.30
2022,05,18,07,29,6.40
2022,05,18,07,30,8.10
2022,05,18,07,31,11.30
2022,05,18,07,32,9.60
2022,05,18,07,33,8.10
2022,05,18,07,34,16.10
2022,05,18,07,35,6.40
2022,05,18,07,36,9.60
2022,05,18,07,37,17.70
2022,05,18,07,38,16.10
2022,05,18,07,39,8.10
2022,05,18,07,40,9.60
2022,05,18,07,41,9.60
2022,05,18,07,42,11.30
2022,05,18,07,43,22.50
2022,05,18,07,44,20.90
2022,05,18,07,45,20.90
2022,05,18,07,46,17.70
2022,05,18,07,47,14.50
2022,05,18,07,48,16.10
2022,05,18,07,49,14.50
2022,05,18,07,50,11.30
2022,05,18,07,51,11.30
2022,05,18,07,52,19.30
2022,05,18,07,53,17.70
2022,05,18,07,54,17.70
2022,05,18,07,55,11.30
2022,05,18,07,56,17.70
2022,05,18,07,57,11.30
2022,05,18,07,58,16.10
2022,05,18,07,59,9.60
2022,05,18,08,00,11.30
2022,05,18,08,01,11.30
2022,05,18,08,02,12.90
2022,05,18,08,03,9.60
2022,05,18,08,04,14.50
2022,05,18,08,05,16.10
2022,05,18,08,06,6.40
2022,05,18,08,07,8.10
2022,05,18,08,08,9.60
2022,05,18,08,09,6.40
2022,05,18,08,10,11.30
2022,05,18,08,11,11.30
2022,05,18,08,12,11.30
2022,05,18,08,13,16.10
2022,05,18,08,14,24.20
2022,05,18,08,15,19.30
2022,05,18,08,16,19.30
2022,05,18,08,17,16.10
2022,05,18,08,18,14.50
2022,05,18,08,19,20.90
2022,05,18,08,20,22.50
2022,05,18,08,21,14.50
2022,05,18,08,22,11.30
2022,05,18,08,23,19.30
2022,05,18,08,24,29.00
2022,05,18,08,25,22.50
2022,05,18,08,26,16.10
2022,05,18,08,27,24.20
2022,05,18,08,28,25.70
2022,05,18,08,29,19.30
2022,05,18,08,30,19.30
2022,05,18,08,31,22.50
2022,05,18,08,32,20.90
2022,05,18,08,33,22.50
2022,05,18,08,34,29.00
2022,05,18,08,35,32.20
2022,05,18,08,36,32.20
2022,05,18,08,37,22.50
2022,05,18,08,38,27.40
2022,05,18,08,39,35.40
2022,05,18,08,40,35.40
2022,05,18,08,41,38.60
2022,05,18,08,42,40.20
2022,05,18,08,43,40.20
2022,05,18,08,44,38.60
2022,05,18,08,45,38.60
2022,05,18,08,46,35.40
2022,05,18,08,47,40.20
2022,05,18,08,48,43.50
2022,05,18,08,49,51.50
2022,05,18,08,50,49.90
2022,05,18,08,51,37.00
2022,05,18,08,52,48.30
2022,05,18,08,53,51.50
2022,05,18,08,54,41.80
2022,05,18,08,55,35.40
2022,05,18,08,56,49.90
2022,05,18,08,57,43.50
2022,05,18,08,58,54.70
2022,05,18,08,59,46.70
2022,05,18,09,00,59.50
2022,05,18,09,01,43.50
2022,05,18,09,02,40.20
2022,05,18,09,03,66.00
2022,05,18,09,04,66.00
2022,05,18,09,05,54.70
2022,05,18,09,06,45.10
2022,05,18,09,07,41.80
2022,05,18,09,08,32.20
2022,05,18,09,09,67.60
2022,05,18,09,10,64.40
2022,05,18,09,11,56.30
2022,05,18,09,12,56.30
2022,05,18,09,13,46.70
2022,05,18,09,14,43.50
2022,05,18,09,15,53.10
2022,05,18,09,16,48.30
2022,05,18,09,17,45.10
2022,05,18,09,18,45.10
2022,05,18,09,19,45.10
2022,05,18,09,20,48.30
2022,05,18,09,21,56.30
2022,05,18,09,22,49.90
2022,05,18,09,23,54.70
2022,05,18,09,24,43.50
2022,05,18,09,25,48.30
2022,05,18,09,26,57.90
2022,05,18,09,27,41.80
2022,05,18,09,28,43.50
2022,05,18,09,29,48.30
2022,05,18,09,30,43.50
2022,05,18,09,31,49.90
2022,05,18,09,32,49.90
2022,05,18,09,33,48.30
2022,05,18,09,34,66.00
2022,05,18,09,35,40.20
2022,05,18,09,36,48.30
2022,05,18,09,37,53.10
2022,05,18,09,38,41.80
2022,05,18,09,39,48.30
2022,05,18,09,40,29.00
2022,05,18,09,41,20.90
2022,05,18,09,42,33.80
2022,05,18,09,43,53.10
2022,05,18,09,44,38.60
2022,05,18,09,45,37.00
2022,05,18,09,46,40.20
2022,05,18,09,47,30.60
2022,05,18,09,48,35.40
2022,05,18,09,49,33.80
2022,05,18,09,50,29.00
2022,05,18,09,51,29.00
2022,05,18,09,52,49.90
2022,05,18,09,53,53.10
2022,05,18,09,54,49.90
2022,05,18,09,55,37.00
2022,05,18,09,56,38.60
2022,05,18,09,57,43.50
2022,05,18,09,58,49.90
2022,05,18,09,59,48.30
2022,05,18,10,00,51.50
2022,05,18,10,01,43.50
2022,05,18,10,02,25.70
2022,05,18,10,03,32.20
2022,05,18,10,04,53.10
2022,05,18,10,05,45.10
2022,05,18,10,06,43.50
2022,05,18,10,07,41.80
2022,05,18,10,08,46.70
2022,05,18,10,09,53.10
2022,05,18,10,10,40.20
2022,05,18,10,11,51.50
2022,05,18,10,12,62.70
2022,05,18,10,13,74.00
2022,05,18,10,14,46.70
2022,05,18,10,15,43.50
2022,05,18,10,16,40.20
2022,05,18,10,17,46.70
2022,05,18,10,18,33.80
2022,05,18,10,19,45.10
2022,05,18,10,20,53.10
2022,05,18,10,21,49.90
2022,05,18,10,22,35.40
2022,05,18,10,23,43.50
2022,05,18,10,24,43.50
2022,05,18,10,25,27.40
2022,05,18,10,26,32.20
2022,05,18,10,27,41.80
2022,05,18,10,28,37.00
2022,05,18,10,29,35.40
2022,05,18,10,30,49.90
2022,05,18,10,31,38.60
2022,05,18,10,32,49.90
2022,05,18,10,33,35.40
2022,05,18,10,34,53.10
2022,05,18,10,35,49.90
2022,05,18,10,36,41.80
2022,05,18,10,37,37.00
2022,05,18,10,38,37.00
2022,05,18,10,39,53.10
2022,05,18,10,40,37.00
2022,05,18,10,41,37.00
2022,05,18,10,42,40.20
2022,05,18,10,43,64.40
2022,05,18,10,44,62.70
2022,05,18,10,45,45.10
2022,05,18,10,46,59.50
2022,05,18,10,47,54.70
2022,05,18,10,48,49.90
2022,05,18,10,49,38.60
2022,05,18,10,50,51.50
2022,05,18,10,51,49.90
2022,05,18,10,52,41.80
2022,05,18,10,53,40.20
2022,05,18,10,54,53.10
2022,05,18,10,55,54.70
2022,05,18,10,56,43.50
2022,05,18,10,57,41.80
2022,05,18,10,58,51.50
2022,05,18,10,59,37.00
2022,05,18,11,00,37.00
2022,05,18,11,01,56.30
2022,05,18,11,02,45.10
2022,05,18,11,03,53.10
2022,05,18,11,04,54.70
2022,05,18,11,05,59.50
2022,05,18,11,06,46.70
2022,05,18,11,07,62.70
2022,05,18,11,08,51.50
2022,05,18,11,09,66.00
2022,05,18,11,10,48.30
2022,05,18,11,11,48.30
2022,05,18,11,12,53.10
2022,05,18,11,13,45.10
2022,05,18,11,14,51.50
2022,05,18,11,15,48.30
2022,05,18,11,16,49.90
2022,05,18,11,17,62.70
2022,05,18,11,18,53.10
2022,05,18,11,19,64.40
2022,05,18,11,20,64.40
2022,05,18,11,21,57.90
2022,05,18,11,22,53.10
2022,05,18,11,23,64.40
2022,05,18,11,24,64.40
2022,05,18,11,25,46.70
2022,05,18,11,26,40.20
2022,05,18,11,27,54.70
2022,05,18,11,28,35.40
2022,05,18,11,29,59.50
2022,05,18,11,30,57.90
2022,05,18,11,31,48.30
2022,05,18,11,32,49.90
2022,05,18,11,33,41.80
2022,05,18,11,34,46.70
2022,05,18,11,35,46.70
2022,05,18,11,36,46.70
2022,05,18,11,37,57.90
2022,05,18,11,38,66.00
2022,05,18,11,39,56.30
2022,05,18,11,40,56.30
2022,05,18,11,41,45.10
2022,05,18,11,42,48.30
2022,05,18,11,43,54.70
2022,05,18,11,44,51.50
2022,05,18,11,45,49.90
2022,05,18,11,46,35.40
